Preview of NWS' New Version of Forecast
This preview is not operational and should not be used for support decisions.

Regional Weather Roundup (RWR)

Issued by National Weather Service (NWS)

                            
000
ASUS43 KLSX 162357
RWRMO 

WEATHER SUMMARY FOR MISSOURI
NATIONAL WEATHER SERVICE SPRINGFIELD MO
700 PM CDT MON SEP 16 2019

NOTE: "FAIR" INDICATES FEW OR NO CLOUDS BELOW 12,000 FEET WITH NO
       SIGNIFICANT WEATHER AND/OR OBSTRUCTIONS TO VISIBILITY.
       CURRENT SKY AND/OR WEATHER CONDITIONS ARE NOT AVAILABLE FOR
       CHILLICOTHE AND FARMINGTON.

MOZ001>031-035>038-043-044-053-054-170100-
...NORTHERN AND WESTERN MISSOURI...
  
CITY           SKY/WX    TMP DP  RH WIND       PRES   REMARKS
KANSAS CTY INT MOCLDY    83  75  77 S5        30.02S HX  90           
6HR MIN TEMP:  83; 6HR MAX TEMP:  89;                                

LEE'S SUMMIT   CLEAR     87  70  56 S5        30.03S HX  92           
6HR MIN TEMP:  87; 6HR MAX TEMP:  92;                                

ST JOSEPH      CLEAR     85  72  65 SE7       30.00S HX  91           
6HR MIN TEMP:  85; 6HR MAX TEMP:  91;                                

CHILLICOTHE      N/A     83  77  82 CALM      30.03S HX  92           
6HR MIN TEMP:  83; 6HR MAX TEMP:  93;                                

     
$$
MOZ066>068-077>081-088>096-101>105-170100-
...SOUTHWEST MISSOURI...
  
CITY           SKY/WX    TMP DP  RH WIND       PRES   REMARKS
SPRINGFIELD    CLOUDY    86  70  58 CALM      30.05S HX  90           
6HR MIN TEMP:  86; 6HR MAX TEMP:  95;                                

JOPLIN         CLEAR     84  67  56 E7        30.04S                  
6HR MIN TEMP:  84; 6HR MAX TEMP:  92;                                

BRANSON        MOCLDY    84  63  48 SE5       30.07S                  
               
$$
MOZ032>034-039>042-045>050-055>058-069>072-170100-
...CENTRAL MISSOURI...  
  
CITY           SKY/WX    TMP DP  RH WIND       PRES   REMARKS
COLUMBIA       NOT AVBL                                               
JEFFERSON CITY CLEAR     87  69  54 CALM      30.02S HX  91           
6HR MIN TEMP:  86; 6HR MAX TEMP:  93;                                

ROLLA          CLEAR     82  70  66 E3        30.06F                  
6HR MIN TEMP:  82; 6HR MAX TEMP:  92;                                

SEDALIA        CLEAR     82  73  74 S3        30.04S                  
6HR MIN TEMP:  82; 6HR MAX TEMP:  91;                                

WARRENSBURG    CLEAR     84  72  65 SE3       30.03S                  
               
$$
MOZ051-052-059>065-170100-
...EAST CENTRAL MISSOURI...
  
CITY           SKY/WX    TMP DP  RH WIND       PRES   REMARKS
ST LOUIS INTL  MOCLDY    88  69  53 N5        30.03S HX  92           
6HR MIN TEMP:  88; 6HR MAX TEMP:  95;                                

                   
$$
MOZ072>076-082>087-097>100-106>115-170100-
...SOUTH CENTRAL AND SOUTHEAST MISSOURI...
  
CITY           SKY/WX    TMP DP  RH WIND       PRES   REMARKS
CAPE GIRARDEAU FAIR      87  71  58 CALM      30.00S HAZE    HX  93   
6HR MIN TEMP:  87; 6HR MAX TEMP:  99;                                

FARMINGTON     PTCLDY    88  68  51 NW3       30.06S HX  91           
POPLAR BLUFF   FAIR      84  72  67 CALM      30.00F                  
6HR MIN TEMP:  84; 6HR MAX TEMP:  97;                                

WEST PLAINS    CLEAR     84  66  54 CALM      30.07F                  
6HR MIN TEMP:  84; 6HR MAX TEMP:  95;                                

                                       
$$